Grub im Wienerwald
Wetterdaten: aktuell Freitag, 14.08.2020 16:06
Datum Zeit Temp. A. Feuchte A. Luftdruck Regen Wind Richtung Richtung Sonnenschein UV Solar Taupunkt Windchill Windben
14.08.2020 16:06 26,5 C 65 % 1010,5 hPa 0,0 l/m 10,5 km/h N 5 3 min 3,5 UV-I 429 W/m 19,4 C 25,7 C 17,7 km/h
14.08.2020 16:03 26,4 C 64 % 1010,5 hPa 0,0 l/m 9,2 km/h N-NW 335 3 min 3,2 UV-I 380 W/m 19,0 C 25,8 C 14,5 km/h
14.08.2020 16:00 26,4 C 65 % 1010,5 hPa 0,0 l/m 10,3 km/h N-NW 335 3 min 3,5 UV-I 432 W/m 19,3 C 25,7 C 16,1 km/h
14.08.2020 15:57 26,3 C 66 % 1010,4 hPa 0,0 l/m 12,6 km/h N-NW 347 3 min 3,6 UV-I 455 W/m 19,4 C 25,2 C 19,3 km/h
14.08.2020 15:54 26,2 C 65 % 1010,5 hPa 0,0 l/m 10,5 km/h N 355 3 min 4,4 UV-I 717 W/m 19,1 C 25,4 C 19,3 km/h
14.08.2020 15:51 26,1 C 66 % 1010,6 hPa 0,0 l/m 9,9 km/h N-NW 346 3 min 4,4 UV-I 701 W/m 19,2 C 25,4 C 16,1 km/h
14.08.2020 15:48 26,1 C 65 % 1010,6 hPa 0,0 l/m 9,5 km/h N 355 3 min 3,6 UV-I 394 W/m 19,0 C 25,5 C 16,1 km/h
14.08.2020 15:45 26,0 C 68 % 1010,6 hPa 0,0 l/m 7,2 km/h N 355 3 min 3,7 UV-I 406 W/m 19,6 C 25,8 C 14,5 km/h
14.08.2020 15:42 25,8 C 65 % 1010,6 hPa 0,0 l/m 5,9 km/h NW 313 3 min 4,3 UV-I 701 W/m 18,7 C 25,8 C 12,9 km/h
14.08.2020 15:39 25,8 C 65 % 1010,6 hPa 0,0 l/m 6,6 km/h N-NW 327 3 min 4,5 UV-I 673 W/m 18,7 C 25,8 C 9,7 km/h
14.08.2020 15:36 25,8 C 64 % 1010,7 hPa 0,0 l/m 6,6 km/h NW 325 3 min 4,1 UV-I 517 W/m 18,5 C 25,8 C 14,5 km/h
14.08.2020 15:33 25,8 C 62 % 1010,7 hPa 0,0 l/m 10,1 km/h N-NW 331 3 min 3,7 UV-I 413 W/m 18,0 C 25,0 C 16,1 km/h
14.08.2020 15:30 26,0 C 64 % 1010,8 hPa 0,0 l/m 7,1 km/h N-NW 333 3 min 3,6 UV-I 381 W/m 18,6 C 25,8 C 14,5 km/h
14.08.2020 15:27 26,1 C 62 % 1010,7 hPa 0,0 l/m 11,0 km/h NW 323 3 min 3,7 UV-I 411 W/m 18,2 C 25,2 C 19,3 km/h
14.08.2020 15:24 26,1 C 61 % 1010,7 hPa 0,0 l/m 12,1 km/h N 350 3 min 3,9 UV-I 459 W/m 18,0 C 25,0 C 19,3 km/h
14.08.2020 15:21 26,1 C 63 % 1010,8 hPa 0,0 l/m 9,6 km/h N-NW 333 3 min 3,7 UV-I 418 W/m 18,5 C 25,4 C 19,3 km/h
14.08.2020 15:18 26,1 C 62 % 1010,8 hPa 0,0 l/m 11,6 km/h N-NW 343 3 min 3,8 UV-I 406 W/m 18,2 C 25,1 C 20,9 km/h
14.08.2020 15:15 26,1 C 62 % 1010,8 hPa 0,0 l/m 10,2 km/h N-NW 333 3 min 3,9 UV-I 408 W/m 18,2 C 25,3 C 19,3 km/h
14.08.2020 15:12 26,2 C 62 % 1010,9 hPa 0,0 l/m 12,3 km/h W-NW 293 3 min 4,0 UV-I 450 W/m 18,3 C 25,1 C 20,9 km/h
14.08.2020 15:09 26,1 C 66 % 1010,9 hPa 0,0 l/m 7,9 km/h W-NW 298 3 min 4,4 UV-I 548 W/m 19,2 C 25,8 C 14,5 km/h
14.08.2020 15:06 26,0 C 65 % 1010,9 hPa 0,0 l/m 8,4 km/h N-NW 338 3 min 4,3 UV-I 487 W/m 18,9 C 25,6 C 14,5 km/h
14.08.2020 15:03 25,9 C 64 % 1010,9 hPa 0,0 l/m 7,8 km/h N-NW 336 3 min 4,5 UV-I 490 W/m 18,6 C 25,6 C 17,7 km/h
14.08.2020 15:00 25,9 C 65 % 1011,0 hPa 0,0 l/m 7,0 km/h N-NW 333 3 min 4,4 UV-I 475 W/m 18,8 C 25,8 C 14,5 km/h
14.08.2020 14:57 25,8 C 64 % 1011,1 hPa 0,0 l/m 5,8 km/h NW 314 3 min 4,6 UV-I 591 W/m 18,5 C 25,8 C 11,3 km/h
14.08.2020 14:54 25,7 C 65 % 1011,1 hPa 0,0 l/m 8,1 km/h N-NW 348 3 min 4,7 UV-I 633 W/m 18,6 C 25,3 C 12,9 km/h
14.08.2020 14:51 25,6 C 66 % 1011,2 hPa 0,0 l/m 7,6 km/h N-NW 337 3 min 4,7 UV-I 585 W/m 18,8 C 25,3 C 11,3 km/h
14.08.2020 14:48 25,6 C 65 % 1011,3 hPa 0,0 l/m 7,0 km/h N-NW 327 3 min 4,3 UV-I 512 W/m 18,5 C 25,5 C 12,9 km/h
14.08.2020 14:45 25,6 C 65 % 1011,3 hPa 0,0 l/m 5,0 km/h W-NW 303 3 min 3,9 UV-I 427 W/m 18,5 C 25,6 C 11,3 km/h
14.08.2020 14:42 25,7 C 65 % 1011,3 hPa 0,0 l/m 5,1 km/h NW 304 0 min 3,8 UV-I 401 W/m 18,6 C 25,7 C 9,7 km/h
14.08.2020 14:39 25,7 C 64 % 1011,4 hPa 0,0 l/m 6,4 km/h W-NW 296 0 min 3,9 UV-I 399 W/m 18,4 C 25,7 C 16,1 km/h
14.08.2020 14:36 25,8 C 64 % 1011,4 hPa 0,0 l/m 6,9 km/h N-NW 336 0 min 3,9 UV-I 396 W/m 18,5 C 25,7 C 12,9 km/h
14.08.2020 14:33 25,8 C 65 % 1011,4 hPa 0,0 l/m 5,7 km/h NW 326 0 min 3,9 UV-I 392 W/m 18,7 C 25,8 C 11,3 km/h
14.08.2020 14:30 25,8 C 65 % 1011,4 hPa 0,0 l/m 6,6 km/h N-NW 340 0 min 3,9 UV-I 396 W/m 18,7 C 25,8 C 12,9 km/h
14.08.2020 14:27 25,9 C 64 % 1011,4 hPa 0,0 l/m 7,6 km/h N 350 0 min 3,9 UV-I 392 W/m 18,6 C 25,6 C 19,3 km/h
14.08.2020 14:24 25,9 C 63 % 1011,5 hPa 0,0 l/m 5,4 km/h NW 323 0 min 3,9 UV-I 374 W/m 18,3 C 25,9 C 12,9 km/h
14.08.2020 14:21 26,1 C 63 % 1011,5 hPa 0,0 l/m 7,7 km/h NW 315 0 min 3,8 UV-I 359 W/m 18,5 C 25,8 C 11,3 km/h
14.08.2020 14:18 26,1 C 64 % 1011,5 hPa 0,0 l/m 9,4 km/h N-NW 344 0 min 3,8 UV-I 350 W/m 18,7 C 25,5 C 14,5 km/h
14.08.2020 14:15 26,2 C 64 % 1011,5 hPa 0,0 l/m 10,2 km/h N 360 0 min 3,8 UV-I 341 W/m 18,8 C 25,5 C 19,3 km/h
14.08.2020 14:12 26,3 C 62 % 1011,5 hPa 0,0 l/m 8,3 km/h NW 325 0 min 3,8 UV-I 341 W/m 18,4 C 25,9 C 14,5 km/h
14.08.2020 14:09 26,4 C 63 % 1011,6 hPa 0,0 l/m 4,6 km/h NW 319 0 min 3,9 UV-I 352 W/m 18,8 C 26,4 C 11,3 km/h
14.08.2020 14:06 26,4 C 63 % 1011,6 hPa 0,0 l/m 5,6 km/h NW 322 0 min 4,0 UV-I 371 W/m 18,8 C 26,4 C 9,7 km/h
14.08.2020 14:03 26,4 C 63 % 1011,6 hPa 0,0 l/m 5,3 km/h N-NW 327 0 min 4,4 UV-I 434 W/m 18,8 C 26,4 C 9,7 km/h
14.08.2020 14:00 26,4 C 62 % 1011,6 hPa 0,0 l/m 6,8 km/h N-NW 344 3 min 4,6 UV-I 466 W/m 18,5 C 26,3 C 14,5 km/h
14.08.2020 13:57 26,4 C 62 % 1011,6 hPa 0,0 l/m 7,4 km/h N-NW 344 3 min 4,9 UV-I 519 W/m 18,5 C 26,2 C 16,1 km/h
14.08.2020 13:54 26,4 C 62 % 1011,7 hPa 0,0 l/m 7,3 km/h W-NW 290 3 min 5,0 UV-I 533 W/m 18,5 C 26,2 C 17,7 km/h
14.08.2020 13:51 26,4 C 63 % 1011,8 hPa 0,0 l/m 7,5 km/h N-NW 335 3 min 5,2 UV-I 541 W/m 18,8 C 26,2 C 12,9 km/h
14.08.2020 13:48 26,4 C 62 % 1011,7 hPa 0,0 l/m 5,9 km/h N-NW 329 3 min 5,0 UV-I 524 W/m 18,5 C 26,4 C 11,3 km/h
14.08.2020 13:45 26,4 C 63 % 1011,8 hPa 0,0 l/m 6,8 km/h N-NW 340 3 min 5,0 UV-I 492 W/m 18,8 C 26,3 C 12,9 km/h
14.08.2020 13:42 26,4 C 62 % 1011,8 hPa 0,0 l/m 6,0 km/h N-NW 339 3 min 4,9 UV-I 506 W/m 18,5 C 26,4 C 9,7 km/h
14.08.2020 13:39 26,5 C 62 % 1011,9 hPa 0,0 l/m 9,4 km/h N-NW 340 0 min 4,7 UV-I 434 W/m 18,6 C 25,9 C 14,5 km/h
14.08.2020 13:36 26,6 C 62 % 1011,8 hPa 0,0 l/m 8,8 km/h N-NW 332 0 min 4,7 UV-I 408 W/m 18,7 C 26,1 C 12,9 km/h
14.08.2020 13:33 26,6 C 62 % 1011,8 hPa 0,0 l/m 11,7 km/h N-NW 331 0 min 4,6 UV-I 392 W/m 18,7 C 25,7 C 19,3 km/h
14.08.2020 13:30 26,7 C 61 % 1011,8 hPa 0,0 l/m 9,9 km/h N-NW 342 0 min 4,6 UV-I 387 W/m 18,5 C 26,1 C 16,1 km/h
14.08.2020 13:27 26,7 C 63 % 1011,8 hPa 0,0 l/m 7,6 km/h N-NW 341 0 min 4,6 UV-I 371 W/m 19,1 C 26,5 C 12,9 km/h
14.08.2020 13:24 26,8 C 61 % 1011,8 hPa 0,0 l/m 8,4 km/h N-NW 341 0 min 5,0 UV-I 396 W/m 18,6 C 26,4 C 11,3 km/h
14.08.2020 13:21 26,8 C 62 % 1011,8 hPa 0,0 l/m 8,8 km/h NW 325 3 min 5,5 UV-I 475 W/m 18,9 C 26,3 C 14,5 km/h
14.08.2020 13:18 26,8 C 62 % 1011,8 hPa 0,0 l/m 11,1 km/h N-NW 327 0 min 5,6 UV-I 446 W/m 18,9 C 26,0 C 19,3 km/h
14.08.2020 13:15 26,8 C 60 % 1011,8 hPa 0,0 l/m 11,3 km/h NW 323 3 min 6,3 UV-I 633 W/m 18,4 C 26,0 C 19,3 km/h
14.08.2020 13:12 26,8 C 62 % 1011,9 hPa 0,0 l/m 9,5 km/h NW 319 3 min 6,6 UV-I 599 W/m 18,9 C 26,2 C 19,3 km/h
14.08.2020 13:09 26,7 C 61 % 1011,8 hPa 0,0 l/m 10,6 km/h N 349 3 min 6,9 UV-I 737 W/m 18,5 C 25,9 C 17,7 km/h
14.08.2020 13:06 26,7 C 60 % 1011,9 hPa 0,0 l/m 12,8 km/h NW 323 3 min 5,9 UV-I 645 W/m 18,3 C 25,6 C 19,3 km/h
14.08.2020 13:03 26,7 C 61 % 1011,8 hPa 0,0 l/m 14,6 km/h NW 315 3 min 6,6 UV-I 680 W/m 18,5 C 25,4 C 22,5 km/h
14.08.2020 13:00 26,6 C 63 % 1011,9 hPa 0,0 l/m 12,6 km/h NW 313 3 min 7,4 UV-I 833 W/m 19,0 C 25,5 C 22,5 km/h
14.08.2020 12:57 26,4 C 65 % 1011,8 hPa 0,0 l/m 5,7 km/h NW 315 3 min 7,5 UV-I 849 W/m 19,3 C 26,4 C 12,9 km/h
14.08.2020 12:54 26,2 C 65 % 1011,8 hPa 0,0 l/m 8,5 km/h N-NW 336 3 min 7,6 UV-I 898 W/m 19,1 C 25,8 C 14,5 km/h
14.08.2020 12:51 26,0 C 64 % 1011,9 hPa 0,0 l/m 9,5 km/h N-NW 332 3 min 7,5 UV-I 867 W/m 18,6 C 25,4 C 17,7 km/h
14.08.2020 12:48 25,8 C 65 % 1011,9 hPa 0,0 l/m 8,1 km/h NW 314 3 min 7,6 UV-I 737 W/m 18,7 C 25,4 C 17,7 km/h
14.08.2020 12:45 25,7 C 70 % 1011,9 hPa 0,0 l/m 6,2 km/h NW 314 3 min 7,2 UV-I 868 W/m 19,8 C 25,7 C 11,3 km/h
14.08.2020 12:42 25,6 C 68 % 1011,9 hPa 0,0 l/m 7,1 km/h N-NW 329 3 min 7,5 UV-I 652 W/m 19,2 C 25,4 C 17,7 km/h
14.08.2020 12:39 25,4 C 69 % 1011,9 hPa 0,0 l/m 6,7 km/h N-NW 329 3 min 6,3 UV-I 640 W/m 19,3 C 25,3 C 12,9 km/h
14.08.2020 12:36 25,3 C 70 % 1011,9 hPa 0,0 l/m 9,3 km/h N 350 3 min 5,9 UV-I 563 W/m 19,4 C 24,6 C 14,5 km/h
14.08.2020 12:33 25,3 C 72 % 1011,9 hPa 0,0 l/m 7,6 km/h N 355 3 min 5,8 UV-I 564 W/m 19,9 C 25,0 C 12,9 km/h
14.08.2020 12:30 25,2 C 73 % 1012,0 hPa 0,0 l/m 4,2 km/h NW 316 3 min 5,6 UV-I 557 W/m 20,0 C 25,2 C 8,0 km/h
14.08.2020 12:27 25,1 C 71 % 1012,0 hPa 0,0 l/m 3,3 km/h NW 311 3 min 5,2 UV-I 483 W/m 19,5 C 25,1 C 6,4 km/h
14.08.2020 12:24 25,0 C 70 % 1012,0 hPa 0,0 l/m 3,2 km/h NW 311 3 min 4,9 UV-I 473 W/m 19,1 C 25,0 C 8,0 km/h
14.08.2020 12:21 24,9 C 70 % 1012,1 hPa 0,0 l/m 4,0 km/h NW 310 3 min 5,0 UV-I 478 W/m 19,0 C 24,9 C 9,7 km/h
14.08.2020 12:18 24,9 C 72 % 1012,0 hPa 0,0 l/m 1,4 km/h NW 309 3 min 5,0 UV-I 482 W/m 19,5 C 24,9 C 6,4 km/h
14.08.2020 12:15 24,8 C 70 % 1012,0 hPa 0,0 l/m 4,4 km/h NW 309 3 min 5,2 UV-I 497 W/m 18,9 C 24,8 C 12,9 km/h
14.08.2020 12:12 24,7 C 70 % 1012,1 hPa 0,0 l/m 5,4 km/h NW 315 3 min 5,3 UV-I 540 W/m 18,8 C 24,7 C 12,9 km/h
14.08.2020 12:09 24,7 C 71 % 1012,1 hPa 0,0 l/m 9,7 km/h NW 324 3 min 5,3 UV-I 563 W/m 19,1 C 23,9 C 16,1 km/h
14.08.2020 12:06 24,6 C 72 % 1012,1 hPa 0,0 l/m 7,3 km/h N-NW 338 3 min 5,3 UV-I 552 W/m 19,2 C 24,4 C 14,5 km/h
14.08.2020 12:03 24,4 C 72 % 1012,1 hPa 0,0 l/m 9,6 km/h N-NW 333 3 min 5,7 UV-I 659 W/m 19,0 C 23,6 C 16,1 km/h
14.08.2020 12:00 24,3 C 71 % 1012,2 hPa 0,0 l/m 7,7 km/h NW 313 3 min 5,4 UV-I 589 W/m 18,7 C 23,9 C 12,9 km/h
14.08.2020 11:57 24,3 C 71 % 1012,2 hPa 0,0 l/m 7,4 km/h N-NW 327 3 min 5,0 UV-I 529 W/m 18,7 C 24,0 C 14,5 km/h
14.08.2020 11:54 24,2 C 71 % 1012,2 hPa 0,0 l/m 11,2 km/h NW 321 3 min 5,0 UV-I 554 W/m 18,6 C 23,0 C 17,7 km/h
14.08.2020 11:51 24,2 C 71 % 1012,3 hPa 0,0 l/m 9,5 km/h N 350 3 min 4,5 UV-I 452 W/m 18,6 C 23,4 C 16,1 km/h
14.08.2020 11:48 24,2 C 72 % 1012,3 hPa 0,0 l/m 9,8 km/h N 355 0 min 4,0 UV-I 404 W/m 18,8 C 23,3 C 16,1 km/h
14.08.2020 11:45 24,2 C 72 % 1012,3 hPa 0,0 l/m 7,7 km/h N-NW 338 0 min 4,0 UV-I 397 W/m 18,8 C 23,8 C 11,3 km/h
14.08.2020 11:42 24,1 C 73 % 1012,3 hPa 0,0 l/m 8,4 km/h N 350 0 min 3,9 UV-I 387 W/m 18,9 C 23,6 C 12,9 km/h
14.08.2020 11:39 24,0 C 73 % 1012,3 hPa 0,0 l/m 6,7 km/h N-NW 330 0 min 3,8 UV-I 380 W/m 18,9 C 23,9 C 11,3 km/h
14.08.2020 11:36 24,0 C 74 % 1012,3 hPa 0,0 l/m 4,0 km/h N-NW 335 0 min 3,9 UV-I 406 W/m 19,1 C 24,0 C 9,7 km/h
_ Min-Zeit 04:39 17:33 17:00 - 18:09 - - - - - 04:24 06:33 18:12
Minimum _ 17,5 C 54 % 1010,4 hPa - 0,0 km/h - - - - - 15,9 C 17,0 C 0,0 km/h
_ Max-Zeit 17:00 04:51 20:51 17:00 13:03 - - 17:18 12:48 12:54 17:00 17:00 09:30
Maximum _ 31,2 C 93 % 1013,0 hPa 0,0 l/m 14,6 km/h
NW
- - 3 min 7,6 UV-I 898 W/m 21,1 C 31,2 C 22,5 km/h
NW
Durchschnitt _ 23,0 C 75 % 1011,7 hPa #0,0 l/m 4,2 km/h N-NW - #5:24 h 3,5 UV-I 357 W/m 18,1 C 22,9 C 9,2 km/h
Schulla EDV